1519768800.06,53244,5.06,71574.8,-23.03,-27.77,-28.15,0,*6D
1519768801.35,53245,5.06,71576.5,-23.03,-27.83,-28.25,0,*64
1519768802.6,53246,5.06,71578.8,-23.03,-27.77,-28.15,0,*6F
1519768803.87,53247,5.06,71580.3,-23.03,-27.83,-28.15,0,*65
1519768805.12,53248,5.06,71580.0,-23.03,-27.77,-28.15,0,*61
1519768806.37,53249,5.06,71578.3,-23.03,-27.77,-28.15,0,*60
1519768807.64,53250,5.06,71576.3,-23.03,-27.77,-28.25,0,*6B
1519768808.89,53251,5.06,71576.8,-23.03,-27.77,-28.15,0,*69
1519768810.14,53252,5.06,71578.8,-23.03,-27.77,-28.15,0,*6A
1519768811.41,53253,5.06,71574.8,-23.03,-27.77,-28.09,0,*66
1519768812.66,53254,5.06,71578.0,-23.03,-27.77,-28.15,0,*6C
1519768813.91,53255,5.06,71578.0,-23.03,-27.77,-28.15,0,*6D
1519768815.16,53256,5.06,71576.0,-23.03,-27.77,-28.15,0,*6E
1519768816.41,53257,5.06,71576.8,-23.03,-27.77,-28.15,0,*6F
1519768817.69,53258,5.06,71576.8,-23.03,-27.61,-28.15,0,*67
1519768818.94,53259,5.06,71576.0,-23.03,-27.67,-28.15,0,*60
1519768820.21,53260,5.06,71582.3,-23.03,-27.77,-28.09,0,*66
1519768821.48,53261,5.06,71578.8,-23.03,-27.67,-28.09,0,*66
1519768822.78,53262,5.06,71576.5,-23.03,-27.61,-28.09,0,*63
1519768824.08,53263,5.06,71572.8,-23.03,-27.61,-28.09,0,*62
1519768825.35,53264,5.06,71582.0,-23.03,-27.51,-27.99,0,*60
1519768826.6,53265,5.06,71578.8,-23.03,-27.51,-27.93,0,*6B
1519768827.86,53266,5.06,71580.0,-23.03,-27.45,-27.93,0,*6D
1519768829.11,53267,5.06,71582.8,-23.03,-27.51,-27.93,0,*69
1519768830.41,53268,5.06,71580.8,-23.03,-27.61,-27.99,0,*6F
1519768831.71,53269,5.06,71576.3,-23.03,-27.61,-27.99,0,*6E
1519768833.02,53270,5.06,71584.5,-23.03,-27.61,-27.99,0,*66
1519768834.32,53271,5.06,71578.5,-23.03,-27.61,-27.99,0,*67
1519768835.6,53272,5.06,71578.0,-23.03,-27.67,-27.99,0,*62
1519768836.9,53273,5.06,71580.5,-23.03,-27.61,-27.99,0,*65
1519768838.18,53274,5.06,71582.3,-23.03,-27.61,-27.93,0,*68
1519768839.45,53275,5.06,71580.8,-23.03,-27.51,-27.99,0,*60
1519768840.72,53276,5.06,71574.5,-23.03,-27.51,-27.99,0,*63
1519768841.99,53277,5.06,71576.0,-23.03,-27.51,-27.99,0,*62
1519768843.26,53278,5.06,71582.5,-23.03,-27.67,-28.09,0,*6E
1519768844.53,53279,5.06,71576.8,-23.03,-27.67,-28.09,0,*6F
1519768845.8,53280,5.06,71576.3,-23.03,-27.77,-28.09,0,*68
1519768847.07,53281,5.06,71578.5,-23.03,-27.77,-28.09,0,*69
1519768848.34,53282,5.06,71576.5,-23.03,-27.77,-28.09,0,*6A
1519768849.61,53283,5.06,71582.0,-23.03,-27.77,-28.09,0,*6B
1519768850.88,53284,5.06,71576.0,-23.03,-27.83,-28.15,0,*6A
1519768852.13,53285,5.06,71578.5,-23.03,-27.77,-28.15,0,*60
1519768853.38,53286,5.06,71576.5,-23.03,-27.77,-28.15,0,*63
1519768854.63,53287,5.06,71578.0,-23.03,-27.67,-28.15,0,*63
1519768855.88,53288,5.06,71576.8,-23.03,-27.67,-28.15,0,*6C
1519768857.13,53289,5.06,71572.5,-23.03,-27.67,-28.15,0,*6D
1519768858.4,53290,5.06,71574.3,-23.03,-27.67,-28.09,0,*68
1519768859.68,53291,5.06,71576.0,-23.03,-27.67,-28.09,0,*69
1519768860.97,53292,5.06,71576.5,-23.03,-27.83,-28.09,0,*60
1519768862.22,53293,5.06,71580.8,-23.03,-27.77,-28.15,0,*67
1519768863.46,53294,5.06,71578.8,-23.03,-27.77,-28.15,0,*60
1519768864.72,53295,5.06,71582.0,-23.03,-27.67,-28.15,0,*60
1519768865.97,53296,5.06,71576.0,-23.03,-27.67,-28.15,0,*63
1519768867.22,53297,5.06,71576.3,-23.03,-27.77,-28.15,0,*63
1519768868.49,53298,5.06,71578.5,-23.03,-27.77,-28.25,0,*6F
1519768869.76,53299,5.06,71580.5,-23.05,-27.83,-28.21,0,*67
1519768871.0,53300,5.06,71574.8,-23.05,-27.83,-28.31,0,*67
1519768872.27,53301,5.06,71576.0,-23.03,-27.83,-28.15,0,*66
1519768873.52,53302,5.06,71578.0,-23.03,-27.77,-28.15,0,*6E
1519768874.81,53303,5.06,71578.5,-23.03,-27.83,-28.25,0,*67
1519768876.1,53304,5.06,71578.5,-23.03,-27.83,-28.25,0,*60
1519768877.37,53305,5.06,71578.5,-23.03,-27.77,-28.25,0,*6A
1519768878.64,53306,5.06,71576.0,-23.05,-27.83,-28.21,0,*60
1519768879.91,53307,5.06,71578.3,-23.05,-27.83,-28.21,0,*61
1519768881.15,53308,5.06,71578.5,-23.05,-27.89,-28.21,0,*64
1519768882.42,53309,5.06,71580.8,-23.07,-27.71,-28.21,0,*60
1519768883.67,53310,5.06,71578.8,-23.05,-27.71,-28.21,0,*6A
1519768884.91,53311,5.06,71576.5,-23.05,-27.71,-28.21,0,*6B
1519768886.16,53312,5.06,71572.8,-23.05,-27.71,-28.21,0,*68
1519768887.4,53313,5.06,71578.8,-23.05,-27.71,-28.21,0,*69
1519768888.67,53314,5.06,71578.8,-23.05,-27.83,-28.21,0,*63
1519768889.94,53315,5.06,71576.5,-23.07,-27.71,-28.21,0,*6D
1519768891.19,53316,5.06,71576.5,-23.05,-27.71,-28.21,0,*6C
1519768892.46,53317,5.06,71578.3,-23.07,-27.67,-28.21,0,*68
1519768893.73,53318,5.06,71576.5,-23.07,-27.71,-28.21,0,*60
1519768894.98,53319,5.06,71574.0,-23.05,-27.71,-28.21,0,*63
1519768896.25,53320,5.06,71576.0,-23.07,-27.71,-28.21,0,*6B
1519768897.52,53321,5.06,71576.5,-23.05,-27.83,-28.21,0,*65
1519768898.79,53322,5.06,71580.5,-23.07,-27.67,-28.21,0,*6E
1519768900.04,53323,5.06,71574.8,-23.05,-27.71,-28.21,0,*6A
1519768901.31,53324,5.06,71576.8,-23.07,-27.67,-28.21,0,*68
1519768902.59,53325,5.06,71576.3,-23.07,-27.67,-28.21,0,*69
1519768903.86,53326,5.06,71578.8,-23.07,-27.71,-28.21,0,*6D
1519768905.13,53327,5.06,71576.0,-23.07,-27.71,-28.21,0,*6C
1519768906.41,53328,5.06,71576.3,-23.07,-27.71,-28.21,0,*63
1519768907.65,53329,5.06,71576.0,-23.05,-27.67,-28.21,0,*67
1519768908.93,53330,5.06,71578.5,-23.07,-27.67,-28.21,0,*6D
1519768910.18,53331,5.06,71578.3,-23.07,-27.67,-28.15,0,*6B
1519768911.43,53332,5.06,71580.8,-23.07,-27.67,-28.15,0,*68
1519768912.68,53333,5.06,71582.3,-23.07,-27.71,-28.15,0,*6E
1519768913.93,53334,5.06,71578.8,-23.07,-27.67,-28.15,0,*6E
1519768915.2,53335,5.06,71582.3,-23.07,-27.83,-28.15,0,*65
1519768916.44,53336,5.06,71576.8,-23.05,-27.83,-28.15,0,*64
1519768917.71,53337,5.06,71578.0,-23.05,-27.83,-28.21,0,*62
1519768919.0,53338,5.06,71578.8,-23.07,-27.83,-28.21,0,*6F
1519768920.27,53339,5.06,71578.5,-23.05,-27.83,-28.21,0,*6C
1519768921.51,53340,5.06,71576.3,-23.05,-27.83,-28.31,0,*63
1519768922.76,53341,5.06,71578.8,-23.05,-27.67,-28.21,0,*69
1519768924.01,53342,5.06,71576.0,-23.07,-27.67,-28.15,0,*6F
1519768925.28,53343,5.06,71578.0,-23.07,-27.67,-28.05,0,*6F
1519768926.5,53344,5.06,71574.8,-23.05,-27.67,-28.15,0,*6B
1519768927.73,53345,5.06,71576.3,-23.05,-27.67,-28.15,0,*6A
1519768929.0,53346,5.06,71578.8,-23.07,-27.67,-28.05,0,*6A
1519768930.25,53347,5.06,71576.0,-23.07,-27.51,-28.15,0,*6F
1519768931.52,53348,5.06,71578.8,-23.07,-27.51,-27.99,0,*6B
1519768932.8,53349,5.06,71580.5,-23.07,-27.67,-28.05,0,*65
1519768934.02,53350,5.06,71578.5,-23.05,-27.67,-28.15,0,*6E
1519768935.26,53351,5.06,71578.3,-23.05,-27.55,-28.05,0,*6F
1519768936.51,53352,5.06,71576.5,-23.05,-27.67,-28.05,0,*6D
1519768937.78,53353,5.06,71578.5,-23.07,-27.71,-28.05,0,*69
1519768939.05,53354,5.06,71576.8,-23.07,-27.55,-27.99,0,*62
1519768940.32,53355,5.06,71582.0,-23.07,-27.55,-27.99,0,*63
1519768941.57,53356,5.06,71574.8,-23.05,-27.55,-28.05,0,*68
1519768942.84,53357,5.06,71576.0,-23.07,-27.67,-28.05,0,*6A
1519768944.09,53358,5.06,71580.0,-23.05,-27.67,-28.05,0,*67
1519768945.31,53359,5.06,71578.8,-23.05,-27.67,-28.15,0,*67
1519768946.57,53360,5.06,71576.8,-23.07,-27.67,-28.15,0,*6F
1519768947.81,53361,5.06,71576.8,-23.05,-27.55,-28.05,0,*6C
1519768949.06,53362,5.06,71580.3,-23.07,-27.55,-28.15,0,*6C
1519768950.3,53363,5.06,71574.0,-23.07,-27.71,-28.15,0,*6B
1519768951.55,53364,5.06,71576.8,-23.05,-27.71,-28.05,0,*6F
1519768952.77,53365,5.06,71576.8,-23.05,-27.67,-28.15,0,*68
1519768954.02,53366,5.06,71582.0,-23.07,-27.55,-28.15,0,*68
1519768955.29,53367,5.06,71578.5,-23.07,-27.67,-28.05,0,*69
1519768956.54,53368,5.06,71580.0,-23.05,-27.67,-28.05,0,*64
1519768957.78,53369,5.06,71576.3,-23.05,-27.55,-28.05,0,*64
1519768959.03,53370,5.06,71580.0,-23.07,-27.55,-28.15,0,*6F
1519768960.25,53371,5.06,71580.5,-23.05,-27.55,-28.15,0,*6C
1519768961.5,53372,5.06,71576.3,-23.07,-27.67,-28.15,0,*6C
1519768962.73,53373,5.06,71576.8,-23.05,-27.67,-28.15,0,*6F
1519768964.0,53374,5.06,71576.5,-23.07,-27.55,-28.05,0,*6A
1519768965.25,53375,5.06,71574.8,-23.07,-27.71,-28.15,0,*6C
1519768966.47,53376,5.06,71576.3,-23.05,-27.71,-28.15,0,*6D
1519768967.69,53377,5.06,71576.8,-23.05,-27.71,-28.15,0,*6C
1519768968.91,53378,5.06,71574.8,-23.05,-27.71,-28.15,0,*63
1519768970.16,53379,5.06,71578.8,-23.07,-27.71,-28.15,0,*60
1519768971.4,53380,5.06,71576.5,-23.05,-27.71,-28.21,0,*63
1519768972.68,53381,5.06,71578.3,-23.07,-27.67,-28.21,0,*67
1519768973.92,53382,5.06,71576.5,-23.05,-27.71,-28.21,0,*61
1519768975.19,53383,5.06,71578.5,-23.07,-27.71,-28.21,0,*62
1519768976.47,53384,5.06,71578.3,-23.07,-27.67,-28.21,0,*62
1519768977.74,53385,5.06,71576.0,-23.07,-27.71,-28.21,0,*64
1519768979.01,53386,5.06,71578.0,-23.07,-27.71,-28.21,0,*67
1519768980.26,53387,5.06,71576.5,-23.07,-27.71,-28.15,0,*61
1519768981.48,53388,5.06,71576.8,-23.05,-27.67,-28.15,0,*6B
1519768982.73,53389,5.06,71578.3,-23.07,-27.67,-28.15,0,*68
1519768983.98,53390,5.06,71576.0,-23.07,-27.71,-28.15,0,*67
1519768985.23,53391,5.06,71576.3,-23.07,-27.71,-28.15,0,*66
1519768986.48,53392,5.06,71578.5,-23.07,-27.71,-28.15,0,*65
1519768987.73,53393,5.06,71578.3,-23.07,-27.71,-28.15,0,*64
1519768989.02,53394,5.06,71574.3,-23.07,-27.83,-28.21,0,*69
1519768990.29,53395,5.06,71578.0,-23.07,-27.67,-28.21,0,*62
1519768991.57,53396,5.06,71582.0,-23.07,-27.71,-28.21,0,*66
1519768992.84,53397,5.06,71576.8,-23.07,-27.83,-28.15,0,*6D
1519768994.13,53398,5.06,71576.0,-23.07,-27.83,-28.21,0,*65
1519768995.4,53399,5.06,71576.8,-23.07,-27.67,-28.21,0,*6E
1519768996.65,53400,5.06,71574.5,-23.09,-27.71,-28.21,0,*60
1519768997.92,53401,5.06,71574.3,-23.07,-27.71,-28.21,0,*6F
1519768999.2,53402,5.06,71578.5,-23.07,-27.67,-28.21,0,*6B
1519769000.45,53403,5.06,71576.3,-23.07,-27.71,-28.15,0,*6A
1519769001.74,53404,5.06,71576.3,-23.07,-27.83,-28.21,0,*67
1519769003.01,53405,5.06,71572.5,-23.09,-27.83,-28.21,0,*68
1519769004.28,53406,5.06,71578.3,-23.09,-27.83,-28.21,0,*6B
1519769005.53,53407,5.06,71572.8,-23.09,-27.71,-28.21,0,*67
1519769006.78,53408,5.06,71572.5,-23.09,-27.71,-28.21,0,*68
1519769008.05,53409,5.06,71574.0,-23.09,-27.83,-28.21,0,*64
1519769009.32,53410,5.06,71570.8,-23.09,-27.83,-28.21,0,*6C
1519769010.56,53411,5.06,71572.3,-23.13,-27.89,-28.25,0,*68
1519769011.78,53412,5.06,71574.8,-23.09,-27.71,-28.15,0,*64
1519769013.01,53413,5.06,71570.8,-23.09,-27.67,-28.15,0,*62
1519769014.26,53414,5.06,71578.3,-23.09,-27.67,-28.05,0,*64
1519769015.51,53415,5.06,71574.5,-23.13,-27.77,-28.21,0,*69
1519769016.76,53416,5.06,71574.8,-23.09,-27.77,-28.21,0,*61
1519769018.01,53417,5.06,71574.3,-23.09,-27.71,-28.05,0,*60
1519769019.23,53418,5.06,71574.3,-23.09,-27.71,-28.15,0,*6E
1519769020.45,53419,5.06,71576.0,-23.09,-27.71,-28.15,0,*6F
1519769021.73,53420,5.06,71578.8,-23.13,-27.61,-28.21,0,*68
1519769022.98,53421,5.06,71578.5,-23.09,-27.67,-28.05,0,*62
1519769024.21,53422,5.06,71574.5,-23.09,-27.67,-28.15,0,*60
1519769025.46,53423,5.06,71572.3,-23.09,-27.51,-28.05,0,*65
1519769026.68,53424,5.06,71574.0,-23.09,-27.55,-28.15,0,*67
1519769027.91,53425,5.06,71578.3,-23.09,-27.71,-28.15,0,*60
1519769029.13,53426,5.06,71574.8,-23.09,-27.67,-28.15,0,*64
1519769030.39,53427,5.06,71572.5,-23.09,-27.67,-28.05,0,*64
1519769031.64,53428,5.06,71578.8,-23.09,-27.67,-28.05,0,*6B
1519769032.88,53429,5.06,71578.5,-23.13,-27.71,-28.09,0,*6A
1519769034.13,53430,5.06,71574.8,-23.09,-27.67,-28.05,0,*62
1519769035.38,53431,5.06,71576.3,-23.09,-27.67,-28.05,0,*63
1519769036.61,53432,5.06,71574.8,-23.09,-27.67,-28.15,0,*61
1519769037.85,53433,5.06,71576.0,-23.13,-27.71,-28.21,0,*6B
1519769039.11,53434,5.06,71578.0,-23.09,-27.67,-28.05,0,*66
1519769040.35,53435,5.06,71576.8,-23.13,-27.71,-28.09,0,*67
1519769041.59,53436,5.06,71576.0,-23.09,-27.55,-28.05,0,*65
1519769042.84,53437,5.06,71574.8,-23.09,-27.51,-28.05,0,*60
1519769044.09,53438,5.06,71582.3,-23.09,-27.51,-28.05,0,*6F
1519769045.34,53439,5.06,71578.5,-23.09,-27.67,-28.05,0,*6B
1519769046.59,53440,5.06,71578.5,-23.09,-27.55,-28.05,0,*64
1519769047.84,53441,5.06,71580.3,-23.09,-27.55,-28.05,0,*65
1519769049.08,53442,5.06,71580.8,-23.09,-27.51,-28.05,0,*62
1519769050.33,53443,5.06,71580.3,-23.13,-27.55,-28.05,0,*6C
1519769051.58,53444,5.06,71580.5,-23.09,-27.67,-28.05,0,*61
1519769052.82,53445,5.06,71578.5,-23.13,-27.71,-28.09,0,*60
1519769054.07,53446,5.06,71578.8,-23.13,-27.61,-27.93,0,*6E
1519769055.31,53447,5.06,71578.5,-23.09,-27.51,-27.83,0,*66
1519769056.58,53448,5.06,71578.3,-23.09,-27.39,-27.83,0,*67
1519769057.84,53449,5.06,71580.5,-23.13,-27.35,-27.83,0,*61
1519769059.09,53450,5.06,71578.0,-23.09,-27.39,-27.89,0,*64
1519769060.34,53451,5.06,71576.3,-23.09,-27.29,-27.83,0,*6E
1519769061.58,53452,5.06,71578.0,-23.09,-27.39,-27.71,0,*61
1519769062.82,53453,5.06,71576.8,-23.09,-27.35,-27.71,0,*6C
1519769064.07,53454,5.06,71582.0,-23.07,-27.29,-27.71,0,*68
1519769065.36,53455,5.06,71580.3,-23.07,-27.35,-27.83,0,*69
1519769066.58,53456,5.06,71580.5,-23.05,-27.29,-27.71,0,*68
1519769067.84,53457,5.06,71576.8,-23.07,-27.19,-27.55,0,*6E
1519769069.11,53458,5.06,71576.8,-23.07,-27.19,-27.67,0,*60
1519769070.37,53459,5.06,71576.8,-23.07,-27.19,-27.55,0,*60
1519769071.62,53460,5.06,71578.3,-23.07,-27.29,-27.67,0,*68
1519769072.91,53461,5.06,71576.0,-23.07,-27.35,-27.83,0,*6E
1519769074.17,53462,5.06,71578.5,-23.07,-27.35,-27.71,0,*60
1519769075.39,53463,5.06,71576.8,-23.05,-27.29,-27.71,0,*6E
1519769076.66,53464,5.06,71578.3,-23.07,-27.19,-27.67,0,*6F
1519769077.88,53465,5.06,71574.5,-23.05,-27.29,-27.55,0,*6E
1519769079.14,53466,5.06,71580.8,-23.07,-27.19,-27.67,0,*6D
1519769080.39,53467,5.06,71574.5,-23.07,-27.29,-27.67,0,*6F
1519769081.62,53468,5.06,71578.8,-23.05,-27.29,-27.67,0,*62
1519769082.84,53469,5.06,71576.8,-23.05,-27.29,-27.71,0,*64
1519769084.1,53470,5.06,71576.8,-23.05,-27.39,-27.83,0,*60
1519769085.37,53471,5.06,71576.5,-23.05,-27.39,-27.83,0,*61
1519769086.61,53472,5.06,71576.3,-23.05,-27.35,-27.89,0,*64
1519769087.85,53473,5.06,71576.8,-23.05,-27.35,-27.71,0,*62
1519769089.09,53474,5.06,71574.5,-23.05,-27.39,-27.89,0,*6E
1519769090.31,53475,5.06,71580.5,-23.05,-27.51,-27.89,0,*61
1519769091.57,53476,5.06,71580.5,-23.05,-27.39,-27.83,0,*66
1519769092.84,53477,5.06,71578.8,-23.07,-27.39,-27.89,0,*6F
1519769094.08,53478,5.06,71582.3,-23.05,-27.39,-27.89,0,*62
1519769095.32,53479,5.06,71578.5,-23.05,-27.39,-27.89,0,*63
1519769096.62,53480,5.06,71576.0,-23.07,-27.39,-27.83,0,*6D
1519769097.89,53481,5.06,71580.0,-23.07,-27.51,-27.99,0,*69
1519769099.13,53482,5.06,71576.0,-23.05,-27.51,-27.99,0,*68
1519769100.4,53483,5.06,71580.5,-23.07,-27.51,-27.99,0,*6B
1519769101.65,53484,5.06,71578.5,-23.05,-27.51,-27.99,0,*6E
1519769102.94,53485,5.06,71576.0,-23.03,-27.45,-27.83,0,*67
1519769104.16,53486,5.06,71578.5,-23.05,-27.51,-27.89,0,*6D
1519769105.37,53487,5.06,71578.3,-23.05,-27.51,-27.89,0,*6C
1519769106.62,53488,5.06,71580.3,-23.05,-27.51,-27.83,0,*69
1519769107.86,53489,5.06,71574.5,-23.05,-27.51,-27.83,0,*68
1519769109.14,53490,5.06,71580.0,-23.07,-27.35,-27.83,0,*60
1519769110.41,53491,5.06,71576.0,-23.05,-27.35,-27.83,0,*63
1519769111.67,53492,5.06,71578.8,-23.05,-27.39,-27.83,0,*6C
1519769112.94,53493,5.06,71578.5,-23.05,-27.39,-27.83,0,*6D
1519769114.18,53494,5.06,71576.8,-23.05,-27.39,-27.71,0,*67
1519769115.42,53495,5.06,71578.0,-23.05,-27.51,-27.83,0,*65
1519769116.66,53496,5.06,71578.5,-23.05,-27.51,-27.83,0,*66
1519769117.88,53497,5.06,71576.8,-23.05,-27.51,-27.89,0,*6D
1519769119.14,53498,5.06,71574.5,-23.05,-27.39,-27.83,0,*66
1519769120.38,53499,5.06,71574.5,-23.05,-27.39,-27.71,0,*6A
1519769121.65,53500,5.06,71578.3,-23.07,-27.55,-27.83,0,*6E
1519769122.92,53501,5.06,71576.8,-23.07,-27.39,-27.71,0,*68
1519769124.13,53502,5.06,71576.3,-23.05,-27.51,-27.71,0,*67
1519769125.4,53503,5.06,71578.5,-23.05,-27.39,-27.83,0,*65
1519769126.66,53504,5.06,71578.5,-23.05,-27.39,-27.83,0,*62
1519769127.9,53505,5.06,71578.3,-23.05,-27.51,-27.83,0,*6D
1519769129.12,53506,5.06,71578.8,-23.05,-27.51,-27.89,0,*64
1519769130.36,53507,5.06,71574.5,-23.05,-27.51,-27.83,0,*6F
1519769131.58,53508,5.06,71572.8,-23.05,-27.55,-27.89,0,*6E
1519769132.79,53509,5.06,71580.3,-23.05,-27.51,-27.89,0,*6B
1519769134.04,53510,5.06,71578.5,-23.05,-27.55,-27.99,0,*66
1519769135.28,53511,5.06,71578.3,-23.05,-27.51,-27.99,0,*63
1519769136.53,53512,5.06,71580.0,-23.05,-27.51,-27.99,0,*60
1519769137.74,53513,5.06,71576.8,-23.05,-27.51,-27.89,0,*60
1519769138.96,53514,5.06,71578.0,-23.05,-27.51,-27.89,0,*67
1519769140.23,53515,5.06,71578.3,-23.05,-27.39,-27.83,0,*62
1519769141.47,53516,5.06,71578.5,-23.05,-27.51,-27.99,0,*64
1519769142.74,53517,5.06,71576.5,-23.07,-27.51,-27.99,0,*67
1519769143.98,53518,5.06,71574.5,-23.05,-27.55,-27.99,0,*6E
1519769145.26,53519,5.06,71576.3,-23.07,-27.67,-27.99,0,*6C
1519769146.5,53520,5.06,71578.5,-23.05,-27.67,-28.05,0,*6E
1519769147.75,53521,5.06,71578.0,-23.05,-27.55,-28.05,0,*6E
1519769149.02,53522,5.06,71576.8,-23.07,-27.67,-28.05,0,*6E
1519769150.27,53523,5.06,71578.0,-23.05,-27.67,-27.99,0,*67
1519769151.52,53524,5.06,71578.8,-23.05,-27.67,-28.05,0,*6A
1519769152.77,53525,5.06,71580.0,-23.05,-27.67,-28.05,0,*6B
1519769154.02,53526,5.06,71578.8,-23.09,-27.67,-28.05,0,*64
1519769155.26,53527,5.06,71576.0,-23.05,-27.55,-27.99,0,*62
1519769156.51,53528,5.06,71574.8,-23.05,-27.55,-28.05,0,*67
1519769157.78,53529,5.06,71578.0,-23.07,-27.67,-27.99,0,*6F
1519769159.02,53530,5.06,71576.3,-23.05,-27.55,-27.99,0,*64
1519769160.29,53531,5.06,71574.3,-23.07,-27.55,-27.99,0,*67
1519769161.56,53532,5.13,71580.3,-23.07,-27.55,-27.99,0,*64
1519769162.81,53533,5.06,71576.5,-23.05,-27.51,-27.99,0,*63
1519769164.08,53534,5.06,71576.3,-23.07,-27.51,-27.99,0,*66
1519769165.32,53535,5.06,71572.0,-23.05,-27.55,-27.99,0,*61
1519769166.59,53536,5.06,71572.8,-23.07,-27.55,-27.99,0,*60
1519769167.84,53537,5.06,71572.8,-23.05,-27.67,-27.99,0,*62
1519769169.11,53538,5.06,71572.8,-23.07,-27.67,-27.99,0,*6F
1519769170.36,53539,5.06,71574.3,-23.05,-27.55,-27.99,0,*6D
1519769171.63,53540,5.06,71576.8,-23.07,-27.55,-27.99,0,*61
1519769172.9,53541,5.06,71572.5,-23.07,-27.67,-27.99,0,*61
1519769174.17,53542,5.06,71578.0,-23.07,-27.55,-27.99,0,*63
1519769175.41,53543,5.06,71576.3,-23.05,-27.71,-27.99,0,*66
1519769176.69,53544,5.06,71574.0,-23.07,-27.71,-28.05,0,*69
1519769177.96,53545,5.06,71572.5,-23.07,-27.55,-27.99,0,*64
1519769179.2,53546,5.06,71576.0,-23.07,-27.55,-27.89,0,*66
1519769180.47,53547,5.06,71572.5,-23.07,-27.67,-27.99,0,*67
1519769181.72,53548,5.06,71572.5,-23.07,-27.55,-27.89,0,*68
1519769182.93,53549,5.06,71574.0,-23.05,-27.55,-27.89,0,*6B
1519769184.21,53550,5.06,71576.3,-23.07,-27.67,-27.99,0,*61
1519769185.48,53551,5.06,71576.8,-23.07,-27.55,-27.99,0,*61
1519769186.7,53552,5.06,71576.8,-23.05,-27.51,-27.89,0,*65
1519769187.96,53553,5.06,71578.8,-23.07,-27.51,-27.83,0,*6C
1519769189.21,53554,5.06,71578.5,-23.07,-27.51,-27.89,0,*61
1519769190.48,53555,5.06,71578.5,-23.07,-27.67,-27.99,0,*64
1519769191.75,53556,5.06,71580.5,-23.07,-27.67,-27.99,0,*67
1519769193.03,53557,5.06,71576.8,-23.07,-27.55,-27.99,0,*67
1519769194.29,53558,5.06,71578.8,-23.07,-27.35,-27.71,0,*68
1519769195.56,53559,5.06,71578.8,-23.07,-27.51,-27.83,0,*66
1519769196.82,53560,5.06,71576.3,-23.07,-27.39,-27.71,0,*6F
1519769198.06,53561,5.06,71574.0,-23.05,-27.51,-27.83,0,*6F
1519769199.34,53562,5.06,71580.5,-23.07,-27.51,-27.99,0,*65
1519769200.6,53563,5.06,71576.8,-23.07,-27.55,-27.99,0,*60
1519769201.88,53564,5.06,71576.5,-23.07,-27.71,-27.99,0,*61
1519769203.15,53565,5.06,71574.5,-23.07,-27.67,-27.99,0,*67
1519769204.42,53566,5.06,71576.3,-23.07,-27.67,-28.05,0,*6E
1519769205.67,53567,5.06,71578.5,-23.07,-27.55,-27.89,0,*65
1519769206.92,53568,5.06,71576.5,-23.07,-27.67,-27.89,0,*6B
1519769208.21,53569,5.06,71578.8,-23.07,-27.39,-27.83,0,*6B
1519769209.48,53570,5.13,71582.3,-23.07,-27.39,-27.71,0,*6E
1519769210.74,53571,5.06,71578.3,-23.07,-27.51,-27.83,0,*6C
1519769212.01,53572,5.06,71578.0,-23.09,-27.39,-27.83,0,*6F
1519769213.23,53573,5.06,71578.0,-23.05,-27.51,-27.71,0,*61
1519769214.52,53574,5.06,71574.3,-23.07,-27.39,-27.83,0,*67
1519769215.79,53575,5.06,71576.0,-23.07,-27.39,-27.71,0,*6B
1519769217.06,53576,5.06,71580.0,-23.07,-27.39,-27.71,0,*68
1519769218.32,53577,5.06,71576.8,-23.05,-27.35,-27.83,0,*6A
1519769219.56,53578,5.06,71580.0,-23.05,-27.39,-27.71,0,*64
1519769220.82,53579,5.06,71574.5,-23.07,-27.35,-27.71,0,*6B
1519769222.06,53580,5.06,71578.0,-23.05,-27.39,-27.71,0,*63
1519769223.31,53581,5.06,71576.5,-23.05,-27.35,-27.67,0,*69
1519769224.57,53582,5.06,71576.3,-23.07,-27.35,-27.55,0,*69
1519769225.81,53583,5.06,71574.5,-23.05,-27.35,-27.67,0,*6B
1519769227.06,53584,5.06,71578.0,-23.07,-27.29,-27.55,0,*62
1519769228.3,53585,5.06,71574.0,-23.05,-27.39,-27.55,0,*60
1519769229.54,53586,5.06,71572.5,-23.05,-27.39,-27.71,0,*65
1519769230.8,53587,5.06,71574.8,-23.07,-27.35,-27.71,0,*6A
1519769232.04,53588,5.06,71574.8,-23.05,-27.39,-27.71,0,*6B
1519769233.28,53589,5.06,71578.0,-23.05,-27.39,-27.71,0,*6A
1519769234.55,53590,5.06,71578.8,-23.05,-27.35,-27.83,0,*63
1519769235.81,53591,5.06,71578.3,-23.05,-27.39,-27.83,0,*6E
1519769237.08,53592,5.06,71578.8,-23.05,-27.39,-27.83,0,*6D
1519769238.32,53593,5.06,71576.8,-23.05,-27.35,-27.67,0,*6A
1519769239.56,53594,5.06,71578.5,-23.05,-27.35,-27.67,0,*6D
1519769240.8,53595,5.06,71578.3,-23.05,-27.39,-27.67,0,*60
1519769242.07,53596,5.06,71580.3,-23.05,-27.39,-27.83,0,*69
1519769243.29,53597,5.06,71580.0,-23.05,-27.51,-27.71,0,*6B
1519769244.54,53598,5.06,71582.0,-23.03,-27.29,-27.67,0,*6A
1519769245.83,53599,5.06,71582.3,-23.03,-27.23,-27.61,0,*67
1519769247.13,53600,5.06,71578.0,-23.03,-27.23,-27.61,0,*64
1519769248.4,53601,5.06,71576.8,-23.03,-27.35,-27.67,0,*64
1519769249.69,53602,5.06,71578.8,-23.03,-27.23,-27.61,0,*66
1519769250.94,53603,5.06,71580.0,-23.03,-27.29,-27.77,0,*6A
1519769252.21,53604,5.06,71578.8,-23.03,-27.45,-27.67,0,*66
1519769253.48,53605,5.06,71578.8,-23.03,-27.35,-27.67,0,*60
1519769254.75,53606,5.06,71578.5,-23.03,-27.35,-27.67,0,*63
1519769256.01,53607,5.06,71574.5,-23.03,-27.45,-27.77,0,*64
1519769257.28,53608,5.06,71576.0,-23.03,-27.45,-27.77,0,*6B
1519769258.55,53609,5.06,71578.5,-23.03,-27.51,-27.83,0,*64
1519769259.84,53610,5.06,71574.0,-23.03,-27.45,-27.83,0,*69
1519769261.08,53611,5.06,71578.0,-23.03,-27.51,-27.93,0,*6C
1519769262.38,53612,5.06,71572.8,-23.03,-27.45,-27.83,0,*6B
1519769263.65,53613,5.06,71574.0,-23.03,-27.51,-27.83,0,*6F
1519769264.91,53614,5.06,71574.5,-23.03,-27.51,-27.83,0,*68
1519769266.18,53615,5.06,71576.3,-23.03,-27.51,-27.83,0,*69
1519769267.48,53616,5.06,71576.0,-23.03,-27.45,-27.83,0,*6F
1519769268.74,53617,5.06,71576.3,-23.03,-27.45,-27.77,0,*65
1519769270.01,53618,5.06,71572.8,-23.03,-27.45,-27.77,0,*6A
1519769271.28,53619,5.06,71574.8,-23.03,-27.45,-27.77,0,*6B
1519769272.58,53620,5.06,71574.3,-23.03,-27.45,-27.83,0,*6A
1519769273.82,53621,5.06,71576.5,-23.03,-27.51,-27.93,0,*6F
1519769275.09,53622,5.06,71576.5,-23.03,-27.51,-27.99,0,*66
1519769276.36,53623,5.06,71574.0,-23.03,-27.51,-27.99,0,*67
1519769277.6,53624,5.06,71574.5,-23.03,-27.51,-27.93,0,*6A
1519769278.84,53625,5.06,71572.3,-23.03,-27.51,-27.93,0,*6B
1519769280.08,53626,5.06,71574.8,-23.03,-27.51,-27.93,0,*68
1519769281.36,53627,5.06,71574.8,-23.03,-27.61,-27.93,0,*6A
1519769282.63,53628,5.06,71578.5,-23.03,-27.61,-27.93,0,*65
1519769283.88,53629,5.06,71574.3,-23.03,-27.67,-27.93,0,*62
1519769285.15,53630,5.06,71578.3,-23.03,-27.67,-27.99,0,*60
1519769286.43,53631,5.06,71578.8,-23.03,-27.61,-27.93,0,*6D
1519769287.65,53632,5.06,71578.0,-23.05,-27.67,-27.89,0,*65
1519769288.86,53633,5.06,71576.5,-23.05,-27.55,-27.89,0,*65
1519769290.11,53634,5.06,71582.0,-23.05,-27.55,-27.99,0,*63
1519769291.35,53635,5.06,71576.0,-23.05,-27.67,-28.05,0,*69
1519769292.6,53636,5.06,71576.8,-23.05,-27.71,-28.05,0,*6D
1519769293.9,53637,5.06,71576.3,-23.03,-27.61,-27.99,0,*61
1519769295.18,53638,5.06,71578.8,-23.03,-27.67,-27.99,0,*68
1519769296.45,53639,5.06,71576.8,-23.03,-27.61,-27.93,0,*65
1519769297.7,53640,5.06,71578.3,-23.03,-27.67,-27.93,0,*6D
1519769298.97,53641,5.06,71578.5,-23.03,-27.67,-28.09,0,*60
1519769300.24,53642,5.06,71578.0,-23.03,-27.67,-27.99,0,*65
1519769301.52,53643,5.06,71576.5,-23.03,-27.67,-28.09,0,*62